| time (UTC) | temp C | wind direction | speed KPH | gust KPH | rain 1hr cm | rain 24hr cm | rain mn cm | humidity % | barometer mb |
| 20260906090040 | 9 | 309 | 9.7 | 27.4 | 0.00 | 0.00 | 0.00 | 59 | 1006.2 |
| 20260906085042 | 9 | 320 | 8.0 | 29.0 | 0.00 | 0.00 | 0.00 | 57 | 1006.0 |
| 20260906084044 | 9 | 323 | 6.4 | 25.7 | 0.00 | 0.00 | 0.00 | 57 | 1005.8 |
| 20260906083044 | 9 | 312 | 16.1 | 29.0 | 0.00 | 0.00 | 0.00 | 54 | 1005.8 |
| 20260906082043 | 9 | 322 | 11.3 | 27.4 | 0.00 | 0.00 | 0.00 | 60 | 1005.7 |
| 20260906081043 | 8 | 309 | 11.3 | 25.7 | 0.00 | 0.00 | 0.00 | 56 | 1005.6 |
| 20260906075037 | 8 | 313 | 8.0 | 25.7 | 0.00 | 0.00 | 0.00 | 55 | 1005.5 |
| 20260906074040 | 8 | 318 | 8.0 | 17.7 | 0.00 | 0.00 | 0.00 | 57 | 1005.3 |
| 20260906073040 | 8 | 302 | 9.7 | 19.3 | 0.00 | 0.00 | 0.00 | 56 | 1005.3 |
| 20260906072045 | 8 | 336 | 8.0 | 22.5 | 0.00 | 0.00 | 0.00 | 57 | 1005.1 |
| 20260906071110 | 8 | 322 | 6.4 | 27.4 | 0.00 | 0.00 | 0.00 | 56 | 1004.9 |
| 20260906070046 | 8 | 311 | 8.0 | 27.4 | 0.00 | 0.00 | 0.00 | 57 | 1004.9 |
| 20260906065046 | 8 | 322 | 8.0 | 22.5 | 0.00 | 0.00 | 0.00 | 57 | 1004.6 |
| 20260906064049 | 8 | 298 | 6.4 | 27.4 | 0.00 | 0.00 | 0.00 | 59 | 1004.4 |
| 20260906063047 | 8 | 318 | 4.8 | 19.3 | 0.00 | 0.00 | 0.00 | 59 | 1004.4 |
| 20260906062108 | 8 | 323 | 3.2 | 25.7 | 0.00 | 0.00 | 0.00 | 59 | 1004.2 |
| 20260906061048 | 8 | 347 | 8.0 | 29.0 | 0.00 | 0.00 | 0.00 | 60 | 1003.9 |
| 20260906060051 | 8 | 315 | 14.5 | 27.4 | 0.00 | 0.00 | 0.00 | 59 | 1003.9 |
| 20260906055034 | 8 | 360 | 9.7 | 22.5 | 0.00 | 0.00 | 0.00 | 58 | 1003.8 |
| 20260906054036 | 8 | 336 | 8.0 | 22.5 | 0.00 | 0.00 | 0.00 | 57 | 1003.7 |
| 20260906053037 | 8 | 323 | 9.7 | 29.0 | 0.00 | 0.00 | 0.00 | 55 | 1003.7 |
| 20260906052055 | 8 | 319 | 12.9 | 30.6 | 0.00 | 0.00 | 0.00 | 55 | 1003.6 |
| 20260906051052 | 8 | 301 | 11.3 | 27.4 | 0.00 | 0.00 | 0.00 | 58 | 1003.4 |
| 20260906050049 | 8 | 306 | 3.2 | 20.9 | 0.00 | 0.00 | 0.00 | 58 | 1003.4 |
| 20260906045047 | 9 | 323 | 6.4 | 17.7 | 0.00 | 0.00 | 0.00 | 59 | 1003.3 |
| 20260906044110 | 9 | 302 | 16.1 | 27.4 | 0.00 | 0.00 | 0.00 | 57 | 1003.1 |
| 20260906043051 | 9 | 339 | 8.0 | 29.0 | 0.00 | 0.00 | 0.00 | 59 | 1003.1 |
| 20260906042049 | 9 | 315 | 6.4 | 22.5 | 0.00 | 0.00 | 0.00 | 59 | 1002.9 |
| 20260906041108 | 8 | 330 | 9.7 | 20.9 | 0.00 | 0.00 | 0.00 | 57 | 1002.8 |
| 20260906040046 | 8 | 299 | 11.3 | 22.5 | 0.00 | 0.00 | 0.00 | 57 | 1002.8 |
| 20260906035045 | 9 | 312 | 1.6 | 25.7 | 0.00 | 0.00 | 0.00 | 57 | 1002.6 |
| 20260906034045 | 9 | 318 | 6.4 | 30.6 | 0.00 | 0.00 | 0.00 | 56 | 1002.4 |
| 20260906033045 | 9 | 323 | 11.3 | 27.4 | 0.00 | 0.00 | 0.00 | 56 | 1002.4 |
| 20260906032043 | 9 | 318 | 3.2 | 30.6 | 0.00 | 0.00 | 0.00 | 58 | 1002.4 |
| 20260906031043 | 9 | 337 | 3.2 | 22.5 | 0.00 | 0.00 | 0.00 | 58 | 1002.3 |
| 20260906030046 | 9 | 311 | 9.7 | 20.9 | 0.00 | 0.00 | 0.00 | 58 | 1002.3 |
| 20260906025046 | 9 | 323 | 8.0 | 19.3 | 0.00 | 0.00 | 0.00 | 58 | 1002.2 |
| 20260906024047 | 9 | 311 | 8.0 | 27.4 | 0.00 | 0.00 | 0.00 | 58 | 1001.9 |
| 20260906023048 | 9 | 332 | 11.3 | 32.2 | 0.00 | 0.00 | 0.00 | 58 | 1001.9 |
| 20260906022108 | 10 | 360 | 9.7 | 22.5 | 0.00 | 0.00 | 0.00 | 54 | 1001.8 |
| 20260906021052 | 10 | 308 | 4.8 | 29.0 | 0.00 | 0.00 | 0.00 | 56 | 1001.7 |
| 20260906020051 | 10 | 309 | 6.4 | 19.3 | 0.00 | 0.00 | 0.00 | 59 | 1001.7 |
| 20260906015051 | 10 | 322 | 4.8 | 20.9 | 0.00 | 0.00 | 0.00 | 58 | 1001.4 |
| 20260906014036 | 10 | 320 | 8.0 | 19.3 | 0.00 | 0.00 | 0.00 | 58 | 1001.4 |
| 20260906013036 | 10 | 308 | 0.0 | 20.9 | 0.00 | 0.00 | 0.00 | 57 | 1001.4 |
| 20260906012058 | 10 | 312 | 6.4 | 29.0 | 0.00 | 0.00 | 0.00 | 56 | 1001.3 |
| 20260906011036 | 10 | 309 | 3.2 | 19.3 | 0.00 | 0.00 | 0.00 | 57 | 1001.2 |
| 20260906010037 | 10 | 319 | 8.0 | 20.9 | 0.00 | 0.00 | 0.00 | 56 | 1001.2 |
| 20260906005034 | 10 | 325 | 1.6 | 19.3 | 0.00 | 0.00 | 0.00 | 57 | 1000.9 |
| 20260906004036 | 10 | 298 | 6.4 | 20.9 | 0.00 | 0.00 | 0.00 | 57 | 1000.8 |
| 20260906003055 | 10 | 315 | 4.8 | 25.7 | 0.00 | 0.00 | 0.00 | 59 | 1000.8 |
| 20260906002053 | 10 | 304 | 1.6 | 22.5 | 0.00 | 0.00 | 0.00 | 57 | 1000.7 |
| 20260906001037 | 10 | 308 | 1.6 | 12.9 | 0.00 | 0.00 | 0.00 | 59 | 1000.5 |
| 20260906000114 | 10 | 326 | 4.8 | 12.9 | 0.00 | 0.00 | 0.00 | 57 | 1000.5 |
| 20260905235052 | 10 | 316 | 1.6 | 12.9 | 0.00 | 0.00 | 0.00 | 59 | 1000.5 |
| 20260905234053 | 10 | 301 | 6.4 | 16.1 | 0.00 | 0.00 | 0.00 | 58 | 1000.5 |
| 20260905233046 | 10 | 308 | 0.0 | 16.1 | 0.00 | 0.00 | 0.00 | 54 | 1000.5 |
| 20260905232045 | 10 | 332 | 6.4 | 19.3 | 0.00 | 0.00 | 0.00 | 58 | 1000.5 |
| 20260905231051 | 10 | 313 | 0.0 | 3.2 | 0.00 | 0.00 | 0.00 | 60 | 1000.5 |
| 20260905230034 | 10 | 315 | 3.2 | 12.9 | 0.00 | 0.00 | 0.00 | 57 | 1000.5 |
| 20260905225034 | 10 | 309 | 0.0 | 19.3 | 0.00 | 0.00 | 0.00 | 57 | 1000.5 |
| 20260905224053 | 10 | 316 | 6.4 | 22.5 | 0.00 | 0.00 | 0.00 | 58 | 1000.2 |
| 20260905223049 | 10 | 323 | 1.6 | 22.5 | 0.00 | 0.00 | 0.00 | 58 | 1000.2 |
| 20260905222047 | 10 | 309 | 1.6 | 17.7 | 0.00 | 0.00 | 0.00 | 57 | 1000.2 |
| 20260905221111 | 11 | 315 | 4.8 | 22.5 | 0.00 | 0.00 | 0.00 | 55 | 1000.1 |
| 20260905220108 | 11 | 298 | 0.0 | 27.4 | 0.00 | 0.00 | 0.00 | 57 | 1000.1 |
| 20260905215044 | 11 | 305 | 8.0 | 22.5 | 0.00 | 0.00 | 0.00 | 59 | 999.9 |
| 20260905214048 | 11 | 342 | 8.0 | 19.3 | 0.00 | 0.00 | 0.00 | 58 | 999.8 |
| 20260905213035 | 11 | 298 | 4.8 | 20.9 | 0.00 | 0.00 | 0.00 | 57 | 999.8 |
| 20260905212031 | 11 | 294 | 11.3 | 25.7 | 0.00 | 0.00 | 0.00 | 57 | 999.8 |
| 20260905211039 | 11 | 320 | 4.8 | 16.1 | 0.00 | 0.00 | 0.00 | 58 | 999.7 |
| 20260905210059 | 11 | 311 | 8.0 | 25.7 | 0.00 | 0.00 | 0.00 | 58 | 999.7 |
| 20260905205037 | 11 | 309 | 8.0 | 17.7 | 0.00 | 0.00 | 0.00 | 58 | 999.6 |
| 20260905204037 | 11 | 330 | 3.2 | 17.7 | 0.00 | 0.00 | 0.00 | 57 | 999.5 |
| 20260905203034 | 11 | 340 | 3.2 | 19.3 | 0.00 | 0.00 | 0.00 | 57 | 999.5 |
| 20260905202035 | 11 | 320 | 3.2 | 25.7 | 0.00 | 0.00 | 0.00 | 56 | 999.3 |
| 20260905201036 | 11 | 312 | 12.9 | 20.9 | 0.00 | 0.00 | 0.00 | 56 | 999.2 |
| 20260905200035 | 11 | 305 | 4.8 | 19.3 | 0.00 | 0.00 | 0.00 | 54 | 999.2 |
| 20260905195034 | 11 | 311 | 9.7 | 29.0 | 0.00 | 0.00 | 0.00 | 55 | 999.2 |
| 20260905194037 | 11 | 323 | 3.2 | 27.4 | 0.00 | 0.00 | 0.00 | 55 | 999.2 |
| 20260905193058 | 11 | 339 | 9.7 | 22.5 | 0.00 | 0.00 | 0.00 | 53 | 999.2 |
| 20260905192037 | 11 | 328 | 12.9 | 25.7 | 0.00 | 0.00 | 0.00 | 54 | 999.1 |
| 20260905191058 | 11 | 319 | 9.7 | 27.4 | 0.00 | 0.00 | 0.00 | 53 | 999.1 |
| 20260905190039 | 11 | 308 | 3.2 | 17.7 | 0.00 | 0.00 | 0.00 | 49 | 999.1 |
| 20260905185040 | 10 | 315 | 4.8 | 17.7 | 0.00 | 0.00 | 0.00 | 47 | 999.1 |
| 20260905184106 | 11 | 311 | 8.0 | 19.3 | 0.00 | 0.00 | 0.00 | 46 | 998.8 |
| 20260905183044 | 10 | 308 | 8.0 | 24.1 | 0.00 | 0.00 | 0.00 | 41 | 998.8 |
| 20260905182106 | 10 | 315 | 4.8 | 22.5 | 0.00 | 0.00 | 0.00 | 39 | 998.7 |
| 20260905181102 | 10 | 335 | 12.9 | 27.4 | 0.00 | 0.00 | 0.00 | 46 | 998.6 |
| 20260905180059 | 10 | 316 | 6.4 | 22.5 | 0.00 | 0.00 | 0.00 | 54 | 998.6 |
| 20260905175038 | 11 | 330 | 9.7 | 27.4 | 0.00 | 0.00 | 0.00 | 54 | 998.5 |
| 20260905174039 | 11 | 319 | 6.4 | 22.5 | 0.00 | 0.00 | 0.00 | 55 | 998.3 |
| 20260905173040 | 11 | 344 | 6.4 | 19.3 | 0.00 | 0.00 | 0.00 | 56 | 998.3 |
| 20260905172044 | 11 | 318 | 8.0 | 19.3 | 0.00 | 0.00 | 0.00 | 55 | 998.2 |
| 20260905171045 | 11 | 335 | 12.9 | 29.0 | 0.00 | 0.00 | 0.00 | 55 | 998.1 |
| 20260905170047 | 11 | 347 | 6.4 | 27.4 | 0.00 | 0.00 | 0.00 | 41 | 998.1 |
| 20260905165046 | 11 | 325 | 14.5 | 29.0 | 0.00 | 0.00 | 0.00 | 37 | 997.8 |
| 20260905164051 | 11 | 349 | 4.8 | 22.5 | 0.00 | 0.00 | 0.00 | 35 | 997.6 |
| 20260905163035 | 11 | 309 | 9.7 | 20.9 | 0.00 | 0.00 | 0.00 | 33 | 997.6 |
| 20260905162038 | 10 | 323 | 6.4 | 32.2 | 0.00 | 0.00 | 0.00 | 29 | 997.6 |
| 20260905161038 | 10 | 295 | 4.8 | 22.5 | 0.00 | 0.00 | 0.00 | 25 | 997.5 |
| 20260905160035 | 10 | 306 | 8.0 | 20.9 | 0.00 | 0.00 | 0.00 | 20 | 997.5 |
| 20260905155035 | 10 | 335 | 11.3 | 20.9 | 0.00 | 0.00 | 0.00 | 14 | 997.4 |
| 20260905154057 | 10 | 316 | 8.0 | 20.9 | 0.00 | 0.00 | 0.00 | 14 | 997.2 |
| 20260905153038 | 10 | 306 | 8.0 | 27.4 | 0.00 | 0.00 | 0.00 | 15 | 997.2 |
| 20260905152039 | 10 | 316 | 4.8 | 29.0 | 0.00 | 0.00 | 0.00 | 17 | 997.2 |
| 20260905151039 | 10 | 319 | 3.2 | 17.7 | 0.00 | 0.00 | 0.00 | 22 | 997.1 |
| 20260905150038 | 10 | 340 | 3.2 | 22.5 | 0.00 | 0.00 | 0.00 | 24 | 997.1 |
| 20260905145040 | 10 | 333 | 4.8 | 25.7 | 0.00 | 0.00 | 0.00 | 19 | 996.9 |
| 20260905144042 | 10 | 309 | 1.6 | 20.9 | 0.00 | 0.00 | 0.00 | 20 | 996.8 |
| 20260905143042 | 10 | 311 | 4.8 | 22.5 | 0.00 | 0.00 | 0.00 | 23 | 996.8 |
| 20260905142042 | 10 | 299 | 8.0 | 24.1 | 0.00 | 0.00 | 0.00 | 27 | 996.6 |
| 20260905141041 | 10 | 302 | 9.7 | 17.7 | 0.00 | 0.00 | 0.00 | 27 | 996.5 |
| 20260905140037 | 10 | 323 | 14.5 | 20.9 | 0.00 | 0.00 | 0.00 | 21 | 996.5 |
| 20260905135058 | 10 | 294 | 6.4 | 19.3 | 0.00 | 0.00 | 0.00 | 18 | 996.4 |
| 20260905134058 | 10 | 329 | 3.2 | 27.4 | 0.00 | 0.00 | 0.00 | 22 | 996.2 |
| 20260905133054 | 10 | 315 | 8.0 | 25.7 | 0.00 | 0.00 | 0.00 | 18 | 996.2 |
| 20260905132038 | 10 | 352 | 9.7 | 29.0 | 0.00 | 0.00 | 0.00 | 17 | 996.1 |
| 20260905131100 | 10 | 315 | 8.0 | 22.5 | 0.00 | 0.00 | 0.00 | 17 | 996.0 |
| 20260905130037 | 10 | 323 | 6.4 | 25.7 | 0.00 | 0.00 | 0.00 | 20 | 996.0 |
| 20260905125037 | 10 | 319 | 3.2 | 27.4 | 0.00 | 0.00 | 0.00 | 22 | 995.8 |
| 20260905124039 | 10 | 337 | 11.3 | 27.4 | 0.00 | 0.00 | 0.00 | 22 | 995.8 |
| 20260905123037 | 10 | 304 | 14.5 | 30.6 | 0.00 | 0.00 | 0.00 | 15 | 995.8 |
| 20260905122038 | 10 | 328 | 12.9 | 27.4 | 0.00 | 0.00 | 0.00 | 13 | 995.7 |
| 20260905121039 | 10 | 301 | 14.5 | 27.4 | 0.00 | 0.00 | 0.00 | 9 | 995.5 |
| 20260905120043 | 10 | 350 | 12.9 | 29.0 | 0.00 | 0.00 | 0.00 | 8 | 995.5 |
| 20260905115044 | 10 | 302 | 8.0 | 27.4 | 0.00 | 0.00 | 0.00 | 8 | 995.3 |
| 20260905114049 | 10 | 319 | 12.9 | 27.4 | 0.00 | 0.00 | 0.00 | 5 | 995.1 |
| 20260905113041 | 10 | 329 | 8.0 | 30.6 | 0.00 | 0.00 | 0.00 | 6 | 995.1 |
| 20260905112040 | 10 | 325 | 6.4 | 29.0 | 0.00 | 0.00 | 0.00 | 9 | 995.0 |
| 20260905111102 | 10 | 360 | 11.3 | 24.1 | 0.00 | 0.00 | 0.00 | 14 | 994.8 |
| 20260905110039 | 10 | 316 | 6.4 | 20.9 | 0.00 | 0.00 | 0.00 | 14 | 994.8 |
| 20260905105039 | 10 | 323 | 12.9 | 22.5 | 0.00 | 0.00 | 0.00 | 13 | 994.6 |
| 20260905104045 | 10 | 326 | 11.3 | 27.4 | 0.00 | 0.00 | 0.00 | 13 | 994.4 |
| 20260905103045 | 10 | 301 | 4.8 | 25.7 | 0.00 | 0.00 | 0.00 | 13 | 994.4 |
| 20260905102045 | 11 | 350 | 17.7 | 30.6 | 0.00 | 0.00 | 0.00 | 14 | 994.2 |
| 20260905101044 | 11 | 359 | 11.3 | 30.6 | 0.00 | 0.00 | 0.00 | 17 | 994.0 |
| 20260905100044 | 11 | 289 | 14.5 | 27.4 | 0.00 | 0.00 | 0.00 | 14 | 994.0 |
| 20260905095043 | 11 | 35 | 11.3 | 25.7 | 0.00 | 0.00 | 0.00 | 13 | 993.9 |
| 20260905094045 | 11 | 320 | 8.0 | 27.4 | 0.00 | 0.00 | 0.00 | 11 | 993.7 |
| 20260905093049 | 11 | 329 | 12.9 | 33.8 | 0.00 | 0.00 | 0.00 | 8 | 993.7 |
| 20260905092048 | 11 | 332 | 4.8 | 30.6 | 0.00 | 0.00 | 0.00 | 8 | 993.6 |
| 20260905091050 | 11 | 299 | 12.9 | 38.6 | 0.00 | 0.00 | 0.00 | 8 | 993.4 |